Location: Lafig�re
(44.4503°N, 4.0357°E)
Time: 20:20:52
(UTC+00:00)

Courier 1B - All Passes

Search period start: 19 January 2021 00:00
Search period end: 29 January 2021 00:00
Orbit: 962 x 1209 km, 28.3° (Epoch: 18 January)

Date Brightness Start Highest point End Pass type
(mag) Time Alt. Az. Time Alt. Az. Time Alt. Az.
19 Jan - 01:33:31 10° SSW 01:37:08 16° SSE 01:40:47 10° SE night (unlit)
19 Jan - 03:25:36 10° SW 03:30:00 19° S 03:34:30 10° SE visible
19 Jan - 05:19:43 10° SW 05:22:53 14° SSW 05:26:08 10° SSE visible
20 Jan - 00:40:46 10° S 00:43:42 13° SSE 00:46:38 10° SE night (unlit)
20 Jan - 02:32:12 10° SW 02:36:31 19° S 02:40:55 10° SE visible
20 Jan - 04:25:44 10° SW 04:29:25 16° SSW 04:33:11 10° SSE visible
20 Jan - 23:48:38 10° S 23:50:17 11° SSE 23:51:55 10° SE night (unlit)
21 Jan - 01:38:53 10° SW 01:43:04 18° S 01:47:16 10° SE night (unlit)
21 Jan - 03:31:57 10° SW 03:35:57 17° S 03:40:00 10° SSE visible
22 Jan - 00:45:41 10° SSW 00:49:37 17° S 00:53:32 10° SE night (unlit)
22 Jan - 02:38:18 10° SW 02:42:29 18° S 02:46:42 10° SE visible
22 Jan - 04:33:30 10° SW 04:35:18 11° SSW 04:37:07 10° S visible
22 Jan - 23:52:38 10° SSW 23:56:10 15° SSE 23:59:40 10° SE night (unlit)
23 Jan - 01:44:44 10° SW 01:49:01 19° S 01:53:18 10° SE night (unlit)
23 Jan - 03:38:56 10° SW 03:41:52 13° SSW 03:44:48 10° SSE visible
23 Jan - 22:59:48 10° S 23:02:42 13° SSE 23:05:36 10° SE night (unlit)
24 Jan - 00:51:16 10° SW 00:55:33 19° S 00:59:49 10° SE night (unlit)
24 Jan - 02:44:52 10° SW 02:48:25 15° SSW 02:51:59 10° SSE visible
24 Jan - 22:07:32 10° S 22:09:16 11° SSE 22:11:00 10° SE night (unlit)
24 Jan - 23:57:52 10° SW 00:02:06 18° S 00:06:16 10° SE night (unlit)
25 Jan - 01:51:01 10° SW 01:54:58 17° S 01:58:55 10° SSE night (unlit)
25 Jan - 23:04:33 10° SSW 23:08:38 17° S 23:12:37 10° SE night (unlit)
26 Jan - 00:57:17 10° SW 01:01:31 18° S 01:05:43 10° SE night (unlit)
26 Jan - 02:52:31 10° SW 02:54:18 11° SSW 02:56:05 10° S night (unlit)
26 Jan - 22:11:23 10° SSW 22:15:09 15° SSE 22:18:50 10° SE night (unlit)
27 Jan - 00:03:37 10° SW 00:08:03 19° S 00:12:24 10° SE night (unlit)
27 Jan - 01:57:52 10° SW 02:00:53 14° SSW 02:03:52 10° SSE night (unlit)
27 Jan - 21:18:26 10° SSW 21:21:40 14° SSE 21:24:50 10° SE night (unlit)
27 Jan - 23:10:02 10° SW 23:14:34 19° S 23:18:59 10° SE night (unlit)
28 Jan - 01:03:43 10° SW 01:07:26 16° SSW 01:11:07 10° SSE night (unlit)
28 Jan - 20:25:56 10° S 20:28:11 12° SSE 20:30:23 10° SE visible
28 Jan - 22:16:32 10° SW 22:21:04 19° S 22:25:29 10° SE night (unlit)
